Overview Statistics Trail Chart Weather Telemetry Raw packets
 

This is the latest recevied weather packets stored in our database for station/object SV9TNF-51. If no packets are shown the sender has not sent any weather packets the latest 10 day(s).

<< 24 25 26 27 28 29 30 >>
Time Temp. Humidity Pressure Rain* Wind** Luminosity Snow
1788501574 28.33° C 50% 1011.2 hPa 0 mm 4.02 m/s, 215° - -
1788501274 28.33° C 51% 1011.2 hPa 0 mm 2.24 m/s, 193° - -
1788500974 28.33° C 52% 1011.2 hPa 0 mm 2.24 m/s, 157° - -
1788500674 28.33° C 52% 1011.2 hPa 0 mm 1.79 m/s, 144° - -
1788500374 27.78° C 53% 1011.2 hPa 0 mm 4.02 m/s, 168° - -
1788500074 27.22° C 55% 1011.2 hPa 0 mm 2.24 m/s, 152° - -
1788499774 26.67° C 56% 1011.2 hPa 0 mm 1.34 m/s, 109° - -
1788499474 26.67° C 58% 1011.2 hPa 0 mm 0 m/s - -
1788499174 26.11° C 59% 1011.2 hPa 0 mm 0 m/s - -
1788498874 25.56° C 60% 1011.2 hPa 0 mm 0 m/s - -
1788498573 25.56° C 61% 1011.2 hPa 0 mm 3.58 m/s, 74° - -
1788498273 25.56° C 61% 1011.2 hPa 0 mm 0.45 m/s, 147° - -
1788497973 25.56° C 62% 1011.2 hPa 0 mm 0.89 m/s, 138° - -
1788497673 25.56° C 62% 1011.2 hPa 0 mm 1.79 m/s, 126° - -
1788497374 25° C 61% 1011.2 hPa 0 mm 0.89 m/s, 145° - -
1788497073 25° C 61% 1011.2 hPa 0 mm 1.34 m/s, 140° - -
1788496773 25° C 61% 1011.2 hPa 0 mm 1.79 m/s, 138° - -
1788496473 24.44° C 59% 1010.8 hPa 0 mm 1.34 m/s, 138° - -
1788496173 24.44° C 59% 1010.8 hPa 0 mm 1.79 m/s, 125° - -
1788495873 24.44° C 59% 1010.8 hPa 0 mm 0 m/s - -
1788495572 23.89° C 60% 1010.8 hPa 0 mm 0.45 m/s, 124° - -
1788495273 23.33° C 60% 1010.8 hPa 0 mm 1.79 m/s, 84° - -
1788494973 23.89° C 61% 1010.5 hPa 0 mm 2.24 m/s, 317° - -
1788494672 24.44° C 66% 1010.5 hPa 0 mm 1.79 m/s, 77° - -
1788494373 24.44° C 65% 1010.5 hPa 0 mm 0.45 m/s, 137° - -

* Rain latest hour (hover to see other rain measurements)
** Current wind speed in m/s (hover to see current wind gust speed)